Weather History for KAMW - May, 2014

Change the Weather History Date:

Saturday, May 10, 2014

  Actual Average Record
Temperature  
Mean Temperature 61 °F 58 °F  
Max Temperature 79 °F 70 °F 93 °F (2011)
Min Temperature 42 °F 47 °F 32 °F (1997)
Degree Days  
Heating Degree Days 4 7  
Month to date heating degree days 77 88  
Since 1 July heating degree days 7516 6710  
Cooling Degree Days 0 1  
Month to date cooling degree days 7 5  
Year to date cooling degree days 14 8  
Growing Degree Days 9 (Base 50)    
Moisture  
Dew Point 45 °F    
Average Humidity 57    
Maximum Humidity 86    
Minimum Humidity 28    
Precipitation  
Precipitation T in 0.15 in 0.75 in (1986)
Month to date precipitation 0.03 1.43  
Sea Level Pressure  
Sea Level Pressure 29.81 in    
Wind  
Wind Speed 7 mph (SSE)    
Max Wind Speed 23 mph    
Max Gust Speed 31 mph    
Visibility 10 miles    
Events Rain    
T = Trace of Precipitation, MM = Missing Value Source: NWS Daily Summary

Daily Weather History Graph

Daily Weather History Graph

Search for Another Location

Airport or City:

Trip Planner

Search our weather history database for the weather conditions in past years. The results will help you decide how hot, cold, wet, or windy it might be!

Date:

Astronomy

May. 10, 2014 Rise Set
Actual Time 5:59 AM CDT 8:23 PM CDT
Civil Twilight 5:27 AM CDT 8:54 PM CDT
Nautical Twilight 4:49 AM CDT 9:33 PM CDT
Astronomical Twilight 4:05 AM CDT 10:17 PM CDT
Moon 4:15 PM CDT (5/10) 3:37 AM CDT (5/10)
Length of Visible Light 15h 26m
Length of Day
14h 23m
Waxing Gibbous, 82% of the Moon is Illuminated
May 10
Waxing Gibbous
May 14
Full
May 21
Last Quarter
May 28
New
Jun 5
First Quarter

Hourly Weather History & Observations

Time (CDT) Temp. Dew Point Humidity Pressure Visibility Wind Dir Wind Speed Gust Speed Precip Events Conditions
12:53 AM 46.9 °F 37.9 °F 71% 29.85 in 10.0 mi Calm Calm - N/A   Clear
1:53 AM 48.0 °F 37.9 °F 68% 29.86 in 10.0 mi Calm Calm - N/A   Clear
2:53 AM 43.0 °F 37.9 °F 82% 29.85 in 10.0 mi Calm Calm - N/A   Clear
3:53 AM 43.0 °F 37.9 °F 82% 29.84 in 10.0 mi Calm Calm - N/A   Clear
4:53 AM 43.0 °F 37.9 °F 82% 29.84 in 10.0 mi Calm Calm - N/A   Clear
6:53 AM 46.9 °F 43.0 °F 86% 29.86 in 10.0 mi Calm Calm - N/A   Scattered Clouds
7:53 AM 50.0 °F 44.1 °F 80% 29.87 in 10.0 mi SE 4.6 mph - N/A   Overcast
8:53 AM 54.0 °F 46.0 °F 75% 29.87 in 9.0 mi SE 3.5 mph - 0.00 in Rain Light Rain
9:53 AM 57.9 °F 48.9 °F 72% 29.86 in 10.0 mi SSE 6.9 mph - 0.00 in   Overcast
10:53 AM 66.0 °F 52.0 °F 60% 29.85 in 10.0 mi South 8.1 mph - N/A   Mostly Cloudy
11:53 AM 70.0 °F 51.1 °F 51% 29.84 in 10.0 mi South 11.5 mph - N/A   Mostly Cloudy
12:53 PM 69.1 °F 48.9 °F 49% 29.83 in 10.0 mi SSE 11.5 mph - N/A   Overcast
1:53 PM 73.0 °F 44.1 °F 35% 29.78 in 10.0 mi SE 15.0 mph - N/A   Mostly Cloudy
2:53 PM 75.9 °F 41.0 °F 29% 29.77 in 10.0 mi South 18.4 mph 25.3 mph N/A   Overcast
4:53 PM 75.0 °F 45.0 °F 34% 29.73 in 10.0 mi South 16.1 mph - 0.00 in   Overcast
5:53 PM 72.0 °F 46.0 °F 40% 29.72 in 10.0 mi South 15.0 mph - N/A   Mostly Cloudy
6:53 PM 72.0 °F 46.9 °F 41% 29.70 in 10.0 mi SSE 18.4 mph 28.8 mph N/A   Scattered Clouds
7:53 PM 69.1 °F 48.0 °F 47% 29.72 in 10.0 mi SSE 6.9 mph - N/A   Scattered Clouds
8:53 PM 66.9 °F 48.0 °F 51% 29.73 in 10.0 mi ENE 6.9 mph - N/A   Scattered Clouds
10:53 PM 59.0 °F 48.9 °F 69% 29.77 in 10.0 mi SE 5.8 mph - N/A   Clear
11:53 PM 57.9 °F 48.9 °F 72% 29.78 in 10.0 mi SE 3.5 mph - N/A   Clear